QPF
0.00 0.00 0.00 0.00 0.05 0.06 0.01 0.00 0.00 0.00 0.00 0.00 0.00 0.00 0.01 0.01 0.04 0.07 0.01 0.00 0.00 0.00 0.00 0.00 0.00 0.01 0.01 0.01 0.02 0.02 0.02 0.02 0.02 0.02 0.02 0.01 0.02 0.03 0.03 0.04 0.04 0.03 0.03 0.03 0.04 0.03 0.02 0.02 0.02
0.00 0.00 0.00 0.03 0.08 0.03 0.01 0.00 0.00 0.00 0.00 0.00 0.00 0.01 0.02 0.00 0.00 0.00 0.00 0.00 0.00 0.00 0.00 0.00 0.00 0.01 0.01 0.01 0.02 0.02 0.03 0.03 0.02 0.02 0.03 0.02 0.03 0.04 0.03 0.04 0.04 0.04 0.03 0.04 0.04 0.03 0.03 0.02 0.03
0.00 0.00 0.00 0.04 0.05 0.01 0.01 0.00 0.00 0.00 0.00 0.00 0.00 0.00 0.01 0.00 0.00 0.00 0.00 0.00 0.00 0.00 0.00 0.00 0.00 0.00 0.01 0.01 0.02 0.02 0.02 0.02 0.03 0.02 0.03 0.03 0.04 0.04 0.05 0.06 0.05 0.05 0.05 0.04 0.04 0.04 0.03 0.02 0.03
0.00 0.00 0.00 0.02 0.03 0.01 0.00 0.00 0.00 0.00 0.00 0.00 0.00 0.00 0.00 0.00 0.00 0.00 0.00 0.00 0.00 0.00 0.00 0.00 0.00 0.01 0.01 0.01 0.01 0.02 0.02 0.02 0.03 0.03 0.03 0.03 0.04 0.05 0.04 0.03 0.04 0.05 0.04 0.03 0.02 0.03 0.03 0.02 0.02
0.00 0.01 0.03 0.02 0.02 0.00 0.00 0.00 0.00 0.00 0.00 0.01 0.00 0.00 0.00 0.00 0.00 0.00 0.00 0.00 0.00 0.00 0.00 0.00 0.00 0.00 0.00 0.01 0.01 0.02 0.02 0.01 0.02 0.02 0.03 0.04 0.05 0.05 0.03 0.03 0.03 0.04 0.03 0.02 0.02 0.03 0.03 0.02 0.01
0.00 0.03 0.06 0.02 0.01 0.00 0.00 0.00 0.00 0.00 0.00 0.00 0.00 0.00 0.00 0.00 0.00 0.00 0.00 0.00 0.00 0.00 0.00 0.00 0.00 0.00 0.00 0.01 0.01 0.01 0.01 0.01 0.02 0.02 0.02 0.03 0.04 0.04 0.03 0.03 0.03 0.03 0.04 0.02 0.02 0.03 0.03 0.04 0.03
0.00 0.03 0.04 0.01 0.01 0.01 0.00 0.00 0.00 0.00 0.00 0.00 0.00 0.00 0.00 0.00 0.00 0.00 0.00 0.00 0.00 0.00 0.00 0.00 0.00 0.00 0.00 0.00 0.01 0.01 0.01 0.01 0.01 0.01 0.02 0.02 0.03 0.03 0.02 0.03 0.03 0.03 0.04 0.03 0.03 0.03 0.02 0.02 0.02
0.00 0.00 0.01 0.01 0.01 0.01 0.00 0.00 0.00 0.00 0.01 0.00 0.00 0.00 0.00 0.00 0.00 0.00 0.00 0.00 0.00 0.00 0.00 0.01 0.00 0.00 0.00 0.00 0.00 0.01 0.01 0.01 0.01 0.01 0.01 0.01 0.02 0.01 0.02 0.02 0.02 0.02 0.03 0.03 0.03 0.03 0.02 0.02 0.02
0.00 0.00 0.01 0.01 0.01 0.01 0.00 0.00 0.00 0.00 0.01 0.00 0.00 0.01 0.00 0.00 0.00 0.00 0.00 0.00 0.01 0.01 0.03 0.06 0.02 0.01 0.02 0.02 0.01 0.01 0.01 0.01 0.02 0.02 0.01 0.03 0.07 0.05 0.04 0.03 0.01 0.01 0.01 0.01 0.02 0.02 0.01 0.01 0.01
0.00 0.00 0.00 0.00 0.00 0.01 0.00 0.00 0.00 0.00 0.00 0.02 0.01 0.00 0.00 0.00 0.00 0.00 0.00 0.00 0.00 0.02 0.03 0.08 0.09 0.04 0.03 0.03 0.02 0.03 0.03 0.02 0.05 0.06 0.03 0.08 0.14 0.12 0.08 0.04 0.01 0.01 0.01 0.01 0.01 0.01 0.01 0.03 0.02
0.00 0.00 0.00 0.00 0.00 0.00 0.00 0.00 0.00 0.01 0.02 0.04 0.02 0.00 0.00 0.00 0.00 0.01 0.01 0.01 0.00 0.01 0.02 0.06 0.09 0.05 0.03 0.04 0.02 0.04 0.06 0.06 0.07 0.09 0.07 0.10 0.09 0.06 0.06 0.04 0.02 0.03 0.03 0.04 0.02 0.02 0.06 0.07 0.06
0.00 0.00 0.00 0.00 0.00 0.00 0.01 0.01 0.00 0.01 0.04 0.06 0.03 0.01 0.00 0.00 0.01 0.01 0.01 0.02 0.02 0.02 0.03 0.04 0.07 0.05 0.04 0.03 0.03 0.03 0.03 0.04 0.05 0.06 0.05 0.06 0.08 0.08 0.07 0.06 0.07 0.07 0.08 0.10 0.07 0.07 0.07 0.05 0.02
0.00 0.00 0.00 0.00 0.00 0.00 0.00 0.00 0.00 0.00 0.00 0.00 0.01 0.01 0.00 0.01 0.01 0.02 0.02 0.03 0.03 0.03 0.03 0.03 0.03 0.03 0.04 0.05 0.05 0.03 0.03 0.03 0.04 0.05 0.04 0.04 0.04 0.07 0.07 0.07 0.08 0.07 0.07 0.05 0.07 0.06 0.05 0.03 0.01
0.00 0.00 0.00 0.00 0.00 0.00 0.00 0.00 0.00 0.00 0.00 0.00 0.00 0.00 0.01 0.01 0.02 0.04 0.05 0.04 0.05 0.03 0.03 0.03 0.03 0.03 0.03 0.03 0.05 0.05 0.03 0.04 0.05 0.05 0.03 0.02 0.05 0.07 0.07 0.05 0.05 0.05 0.04 0.03 0.03 0.03 0.03 0.03 0.03
0.00 0.00 0.00 0.00 0.00 0.00 0.00 0.00 0.01 0.00 0.00 0.00 0.00 0.00 0.00 0.01 0.02 0.03 0.05 0.06 0.06 0.05 0.04 0.04 0.04 0.04 0.04 0.04 0.05 0.04 0.02 0.02 0.04 0.06 0.05 0.02 0.02 0.05 0.05 0.05 0.04 0.03 0.02 0.03 0.04 0.04 0.04 0.05 0.05
0.00 0.00 0.00 0.00 0.00 0.00 0.01 0.02 0.03 0.01 0.00 0.00 0.00 0.00 0.00 0.01 0.02 0.02 0.04 0.07 0.08 0.08 0.06 0.05 0.04 0.07 0.05 0.05 0.05 0.03 0.02 0.02 0.04 0.04 0.05 0.03 0.03 0.03 0.04 0.05 0.04 0.02 0.02 0.03 0.04 0.04 0.05 0.07 0.07
0.00 0.00 0.00 0.00 0.00 0.00 0.02 0.04 0.03 0.02 0.00 0.00 0.00 0.00 0.00 0.00 0.01 0.02 0.02 0.04 0.07 0.06 0.06 0.06 0.07 0.08 0.07 0.05 0.05 0.06 0.05 0.05 0.03 0.03 0.04 0.04 0.03 0.03 0.02 0.03 0.05 0.04 0.03 0.02 0.03 0.04 0.05 0.07 0.07
0.00 0.00 0.00 0.00 0.00 0.00 0.01 0.01 0.01 0.00 0.00 0.00 0.01 0.01 0.01 0.01 0.01 0.02 0.03 0.04 0.05 0.06 0.06 0.05 0.07 0.09 0.11 0.09 0.08 0.08 0.06 0.04 0.03 0.04 0.05 0.04 0.04 0.03 0.03 0.02 0.03 0.03 0.05 0.05 0.04 0.08 0.07 0.06 0.06
0.00 0.00 0.00 0.00 0.00 0.00 0.00 0.01 0.02 0.01 0.00 0.00 0.01 0.02 0.04 0.04 0.03 0.02 0.05 0.06 0.04 0.05 0.08 0.09 0.09 0.09 0.09 0.08 0.05 0.05 0.05 0.05 0.05 0.03 0.03 0.03 0.03 0.03 0.04 0.04 0.07 0.05 0.06 0.06 0.05 0.06 0.07 0.06 0.05
0.00 0.00 0.00 0.00 0.00 0.00 0.00 0.01 0.04 0.01 0.00 0.00 0.00 0.00 0.01 0.02 0.03 0.04 0.05 0.04 0.03 0.04 0.06 0.10 0.12 0.11 0.10 0.09 0.07 0.07 0.07 0.06 0.06 0.05 0.05 0.03 0.02 0.02 0.03 0.05 0.06 0.07 0.09 0.09 0.08 0.08 0.10 0.10 0.06
0.00 0.00 0.00 0.00 0.00 0.00 0.00 0.01 0.03 0.01 0.00 0.00 0.00 0.00 0.00 0.01 0.04 0.03 0.02 0.02 0.03 0.04 0.05 0.06 0.11 0.13 0.16 0.14 0.11 0.10 0.10 0.08 0.08 0.07 0.06 0.04 0.03 0.03 0.03 0.04 0.05 0.07 0.06 0.08 0.08 0.09 0.10 0.11 0.08
0.00 0.00 0.00 0.00 0.00 0.00 0.00 0.02 0.07 0.05 0.02 0.01 0.01 0.01 0.00 0.01 0.03 0.04 0.02 0.03 0.03 0.03 0.04 0.07 0.09 0.11 0.13 0.14 0.13 0.11 0.09 0.08 0.07 0.07 0.07 0.09 0.08 0.07 0.05 0.05 0.05 0.06 0.06 0.10 0.07 0.09 0.10 0.12 0.09
0.00 0.00 0.00 0.00 0.00 0.00 0.01 0.02 0.03 0.03 0.04 0.02 0.01 0.01 0.01 0.01 0.02 0.03 0.03 0.03 0.04 0.03 0.05 0.08 0.10 0.11 0.11 0.12 0.11 0.10 0.12 0.11 0.09 0.08 0.12 0.12 0.12 0.11 0.09 0.08 0.08 0.07 0.08 0.08 0.08 0.13 0.10 0.09 0.08
0.00 0.00 0.00 0.00 0.00 0.01 0.01 0.03 0.04 0.03 0.03 0.02 0.02 0.02 0.02 0.01 0.01 0.01 0.03 0.04 0.04 0.04 0.05 0.07 0.12 0.16 0.13 0.12 0.10 0.08 0.09 0.11 0.11 0.12 0.11 0.10 0.11 0.11 0.10 0.10 0.10 0.09 0.10 0.09 0.06 0.08 0.07 0.09 0.09
0.00 0.00 0.00 0.01 0.01 0.01 0.01 0.01 0.01 0.02 0.04 0.02 0.01 0.01 0.04 0.02 0.01 0.01 0.01 0.02 0.02 0.01 0.02 0.04 0.07 0.09 0.09 0.08 0.08 0.09 0.09 0.10 0.11 0.12 0.11 0.09 0.08 0.08 0.09 0.11 0.11 0.10 0.10 0.08 0.07 0.08 0.09 0.08 0.08
0.00 0.00 0.00 0.01 0.01 0.01 0.00 0.01 0.01 0.01 0.03 0.01 0.00 0.01 0.02 0.01 0.01 0.00 0.01 0.01 0.01 0.01 0.01 0.03 0.04 0.05 0.08 0.07 0.07 0.09 0.11 0.11 0.10 0.11 0.10 0.09 0.07 0.07 0.09 0.11 0.11 0.09 0.09 0.08 0.10 0.08 0.07 0.08 0.07
0.00 0.00 0.00 0.00 0.01 0.01 0.01 0.01 0.01 0.00 0.00 0.00 0.00 0.01 0.02 0.01 0.00 0.00 0.00 0.00 0.00 0.01 0.02 0.03 0.04 0.05 0.06 0.06 0.07 0.08 0.08 0.12 0.14 0.13 0.11 0.09 0.08 0.08 0.10 0.11 0.13 0.11 0.10 0.10 0.10 0.07 0.08 0.09 0.06
0.00 0.00 0.00 0.01 0.03 0.03 0.02 0.02 0.02 0.01 0.00 0.00 0.00 0.00 0.00 0.00 0.00 0.00 0.00 0.01 0.01 0.02 0.04 0.04 0.04 0.04 0.05 0.06 0.07 0.08 0.10 0.11 0.14 0.14 0.11 0.09 0.09 0.10 0.11 0.11 0.12 0.12 0.11 0.11 0.12 0.09 0.08 0.10 0.09
0.00 0.00 0.00 0.01 0.01 0.03 0.04 0.05 0.04 0.04 0.02 0.00 0.01 0.01 0.00 0.00 0.00 0.00 0.00 0.01 0.01 0.02 0.04 0.06 0.06 0.07 0.06 0.05 0.08 0.10 0.10 0.10 0.12 0.11 0.10 0.11 0.11 0.11 0.11 0.11 0.12 0.13 0.13 0.13 0.15 0.11 0.10 0.10 0.11
0.00 0.00 0.00 0.01 0.01 0.00 0.02 0.06 0.09 0.07 0.04 0.02 0.02 0.02 0.00 0.00 0.00 0.00 0.00 0.00 0.00 0.01 0.03 0.06 0.10 0.14 0.11 0.06 0.07 0.08 0.08 0.09 0.11 0.14 0.13 0.12 0.13 0.12 0.11 0.12 0.14 0.15 0.17 0.18 0.17 0.12 0.11 0.11 0.12
MSLP
1006.14 1006.87 1007.62 1008.25 1008.61 1008.66 1008.40 1007.94 1007.40 1006.95 1006.69 1006.68 1006.91 1007.30 1007.74 1008.14 1008.41 1008.54 1008.56 1008.57 1008.63 1008.84 1009.22 1009.75 1010.39 1011.04 1011.61 1012.05 1012.33 1012.47 1012.53 1012.56 1012.64 1012.78 1013.01 1013.28 1013.58 1013.85 1014.06 1014.23 1014.35 1014.45 1014.58 1014.74 1014.93 1015.15 1015.37 1015.56 1015.69
1006.30 1007.12 1007.91 1008.49 1008.76 1008.68 1008.28 1007.69 1007.04 1006.51 1006.21 1006.18 1006.39 1006.78 1007.22 1007.61 1007.89 1008.04 1008.12 1008.21 1008.38 1008.70 1009.21 1009.85 1010.58 1011.28 1011.88 1012.32 1012.58 1012.71 1012.76 1012.79 1012.88 1013.04 1013.29 1013.58 1013.87 1014.12 1014.31 1014.43 1014.51 1014.58 1014.69 1014.85 1015.06 1015.30 1015.53 1015.73 1015.87
1006.54 1007.39 1008.14 1008.64 1008.78 1008.55 1008.02 1007.31 1006.60 1006.04 1005.73 1005.70 1005.92 1006.30 1006.73 1007.11 1007.38 1007.55 1007.67 1007.83 1008.10 1008.54 1009.17 1009.93 1010.75 1011.51 1012.15 1012.60 1012.87 1012.99 1013.04 1013.08 1013.18 1013.36 1013.62 1013.91 1014.19 1014.42 1014.57 1014.65 1014.70 1014.76 1014.86 1015.02 1015.24 1015.49 1015.73 1015.92 1016.05
1006.81 1007.63 1008.29 1008.65 1008.63 1008.26 1007.62 1006.85 1006.12 1005.57 1005.29 1005.31 1005.55 1005.94 1006.35 1006.70 1006.95 1007.12 1007.27 1007.48 1007.84 1008.39 1009.13 1010.00 1010.90 1011.73 1012.41 1012.88 1013.16 1013.28 1013.34 1013.39 1013.51 1013.70 1013.97 1014.25 1014.52 1014.73 1014.86 1014.93 1014.97 1015.03 1015.13 1015.30 1015.53 1015.78 1016.01 1016.18 1016.28
1007.07 1007.79 1008.31 1008.50 1008.33 1007.84 1007.13 1006.35 1005.65 1005.17 1004.97 1005.05 1005.34 1005.73 1006.13 1006.45 1006.66 1006.81 1006.96 1007.22 1007.64 1008.28 1009.11 1010.06 1011.03 1011.92 1012.62 1013.12 1013.40 1013.54 1013.61 1013.68 1013.81 1014.01 1014.28 1014.57 1014.84 1015.04 1015.17 1015.25 1015.30 1015.38 1015.51 1015.69 1015.92 1016.16 1016.36 1016.49 1016.54
1007.27 1007.85 1008.19 1008.21 1007.90 1007.32 1006.59 1005.85 1005.25 1004.89 1004.81 1004.98 1005.33 1005.73 1006.11 1006.38 1006.55 1006.66 1006.80 1007.07 1007.53 1008.22 1009.11 1010.11 1011.12 1012.03 1012.75 1013.26 1013.55 1013.71 1013.79 1013.88 1014.02 1014.24 1014.52 1014.82 1015.09 1015.31 1015.46 1015.56 1015.65 1015.76 1015.93 1016.14 1016.37 1016.59 1016.75 1016.83 1016.82
1007.40 1007.80 1007.95 1007.80 1007.38 1006.76 1006.06 1005.41 1004.95 1004.74 1004.81 1005.09 1005.49 1005.92 1006.27 1006.50 1006.61 1006.68 1006.80 1007.05 1007.52 1008.22 1009.11 1010.12 1011.13 1012.03 1012.75 1013.25 1013.56 1013.73 1013.83 1013.94 1014.12 1014.36 1014.65 1014.97 1015.25 1015.49 1015.67 1015.81 1015.95 1016.11 1016.30 1016.54 1016.77 1016.97 1017.09 1017.11 1017.04
1007.44 1007.65 1007.62 1007.33 1006.83 1006.20 1005.57 1005.05 1004.75 1004.71 1004.92 1005.31 1005.77 1006.21 1006.54 1006.73 1006.80 1006.82 1006.90 1007.13 1007.57 1008.24 1009.10 1010.07 1011.04 1011.90 1012.59 1013.08 1013.39 1013.58 1013.72 1013.87 1014.08 1014.35 1014.67 1015.00 1015.31 1015.56 1015.77 1015.95 1016.13 1016.33 1016.56 1016.81 1017.04 1017.22 1017.30 1017.27 1017.16
1007.41 1007.45 1007.26 1006.86 1006.30 1005.70 1005.15 1004.77 1004.63 1004.74 1005.08 1005.56 1006.07 1006.52 1006.83 1006.99 1007.02 1007.01 1007.05 1007.25 1007.65 1008.27 1009.06 1009.96 1010.85 1011.64 1012.28 1012.75 1013.07 1013.28 1013.46 1013.66 1013.92 1014.23 1014.58 1014.93 1015.26 1015.53 1015.77 1015.97 1016.18 1016.40 1016.65 1016.90 1017.13 1017.28 1017.34 1017.29 1017.15
1007.34 1007.23 1006.91 1006.42 1005.85 1005.28 1004.82 1004.56 1004.54 1004.78 1005.21 1005.74 1006.28 1006.72 1007.02 1007.17 1007.19 1007.17 1007.20 1007.37 1007.72 1008.27 1008.98 1009.78 1010.57 1011.28 1011.87 1012.31 1012.63 1012.88 1013.11 1013.37 1013.68 1014.04 1014.42 1014.80 1015.14 1015.43 1015.67 1015.89 1016.10 1016.33 1016.58 1016.83 1017.04 1017.18 1017.22 1017.17 1017.03
1007.28 1007.05 1006.63 1006.09 1005.50 1004.96 1004.57 1004.40 1004.46 1004.76 1005.23 1005.77 1006.31 1006.74 1007.04 1007.19 1007.23 1007.23 1007.28 1007.44 1007.77 1008.26 1008.88 1009.57 1010.26 1010.88 1011.40 1011.82 1012.15 1012.43 1012.72 1013.04 1013.41 1013.82 1014.24 1014.63 1014.99 1015.28 1015.53 1015.75 1015.96 1016.18 1016.41 1016.64 1016.84 1016.97 1017.02 1016.97 1016.87
1007.26 1006.94 1006.45 1005.87 1005.27 1004.76 1004.41 1004.27 1004.36 1004.66 1005.11 1005.62 1006.12 1006.54 1006.84 1007.02 1007.10 1007.16 1007.26 1007.45 1007.77 1008.22 1008.77 1009.37 1009.96 1010.50 1010.97 1011.36 1011.70 1012.02 1012.36 1012.74 1013.16 1013.61 1014.05 1014.47 1014.83 1015.14 1015.39 1015.60 1015.80 1016.01 1016.23 1016.44 1016.63 1016.75 1016.81 1016.80 1016.74
1007.29 1006.90 1006.37 1005.76 1005.17 1004.67 1004.32 1004.18 1004.24 1004.49 1004.87 1005.31 1005.76 1006.15 1006.45 1006.67 1006.83 1006.98 1007.16 1007.41 1007.76 1008.20 1008.70 1009.23 1009.74 1010.22 1010.64 1011.01 1011.35 1011.70 1012.08 1012.49 1012.95 1013.42 1013.89 1014.32 1014.69 1015.01 1015.27 1015.49 1015.70 1015.90 1016.11 1016.31 1016.48 1016.61 1016.69 1016.71 1016.70
1007.37 1006.94 1006.38 1005.77 1005.18 1004.68 1004.32 1004.14 1004.14 1004.30 1004.57 1004.92 1005.29 1005.64 1005.95 1006.22 1006.47 1006.72 1007.01 1007.35 1007.74 1008.19 1008.68 1009.17 1009.63 1010.06 1010.45 1010.80 1011.15 1011.51 1011.89 1012.32 1012.78 1013.26 1013.73 1014.16 1014.55 1014.88 1015.17 1015.41 1015.64 1015.86 1016.08 1016.28 1016.46 1016.60 1016.70 1016.76 1016.80
1007.47 1007.01 1006.45 1005.84 1005.27 1004.79 1004.42 1004.19 1004.11 1004.16 1004.31 1004.55 1004.83 1005.13 1005.45 1005.77 1006.11 1006.47 1006.86 1007.29 1007.75 1008.23 1008.72 1009.20 1009.64 1010.04 1010.41 1010.75 1011.09 1011.44 1011.81 1012.22 1012.65 1013.10 1013.55 1013.97 1014.37 1014.72 1015.05 1015.34 1015.62 1015.88 1016.12 1016.35 1016.55 1016.71 1016.83 1016.93 1017.00
1007.53 1007.06 1006.52 1005.96 1005.43 1004.98 1004.62 1004.35 1004.20 1004.14 1004.18 1004.30 1004.49 1004.74 1005.05 1005.40 1005.81 1006.26 1006.74 1007.25 1007.78 1008.30 1008.81 1009.29 1009.73 1010.13 1010.49 1010.83 1011.15 1011.47 1011.81 1012.16 1012.53 1012.92 1013.32 1013.72 1014.11 1014.49 1014.86 1015.22 1015.56 1015.88 1016.18 1016.44 1016.67 1016.87 1017.02 1017.15 1017.27
1007.50 1007.05 1006.57 1006.09 1005.65 1005.26 1004.93 1004.66 1004.45 1004.31 1004.23 1004.24 1004.33 1004.52 1004.80 1005.17 1005.62 1006.13 1006.68 1007.25 1007.82 1008.38 1008.91 1009.40 1009.85 1010.26 1010.64 1010.97 1011.28 1011.57 1011.85 1012.13 1012.42 1012.72 1013.05 1013.40 1013.77 1014.16 1014.57 1014.99 1015.40 1015.80 1016.16 1016.48 1016.76 1016.99 1017.19 1017.36 1017.51
1007.38 1006.98 1006.58 1006.23 1005.91 1005.62 1005.36 1005.11 1004.87 1004.65 1004.48 1004.38 1004.37 1004.49 1004.72 1005.08 1005.53 1006.07 1006.64 1007.24 1007.84 1008.41 1008.96 1009.47 1009.95 1010.38 1010.78 1011.12 1011.43 1011.69 1011.91 1012.11 1012.30 1012.51 1012.74 1013.02 1013.35 1013.74 1014.18 1014.65 1015.13 1015.59 1016.02 1016.40 1016.73 1017.01 1017.25 1017.46 1017.65
1007.15 1006.84 1006.59 1006.39 1006.23 1006.08 1005.90 1005.69 1005.43 1005.14 1004.88 1004.67 1004.56 1004.59 1004.76 1005.07 1005.50 1006.03 1006.60 1007.20 1007.79 1008.37 1008.92 1009.45 1009.95 1010.42 1010.85 1011.22 1011.54 1011.79 1011.97 1012.10 1012.20 1012.30 1012.44 1012.63 1012.91 1013.27 1013.71 1014.21 1014.73 1015.24 1015.73 1016.16 1016.54 1016.87 1017.15 1017.41 1017.65
1006.87 1006.69 1006.61 1006.61 1006.63 1006.63 1006.55 1006.36 1006.08 1005.72 1005.35 1005.03 1004.80 1004.73 1004.82 1005.07 1005.46 1005.95 1006.50 1007.08 1007.65 1008.22 1008.77 1009.31 1009.83 1010.34 1010.81 1011.23 1011.57 1011.83 1012.00 1012.09 1012.12 1012.14 1012.18 1012.30 1012.50 1012.82 1013.23 1013.72 1014.26 1014.80 1015.32 1015.80 1016.21 1016.58 1016.91 1017.21 1017.51
1006.59 1006.59 1006.72 1006.92 1007.13 1007.26 1007.26 1007.09 1006.76 1006.31 1005.82 1005.36 1005.01 1004.82 1004.82 1005.00 1005.34 1005.79 1006.31 1006.85 1007.40 1007.95 1008.49 1009.03 1009.57 1010.11 1010.63 1011.10 1011.50 1011.80 1011.98 1012.06 1012.07 1012.03 1012.01 1012.05 1012.19 1012.44 1012.81 1013.27 1013.80 1014.34 1014.87 1015.36 1015.80 1016.20 1016.56 1016.91 1017.24
1006.38 1006.58 1006.93 1007.34 1007.71 1007.96 1008.00 1007.81 1007.40 1006.82 1006.18 1005.57 1005.08 1004.78 1004.69 1004.80 1005.10 1005.52 1006.02 1006.54 1007.06 1007.58 1008.10 1008.64 1009.19 1009.75 1010.31 1010.84 1011.30 1011.65 1011.88 1012.00 1012.01 1011.96 1011.91 1011.90 1011.98 1012.18 1012.49 1012.91 1013.40 1013.92 1014.44 1014.92 1015.37 1015.78 1016.16 1016.53 1016.90
1006.27 1006.68 1007.25 1007.84 1008.35 1008.67 1008.71 1008.45 1007.93 1007.20 1006.40 1005.63 1005.00 1004.58 1004.41 1004.48 1004.76 1005.17 1005.65 1006.17 1006.68 1007.18 1007.67 1008.19 1008.73 1009.30 1009.88 1010.45 1010.96 1011.37 1011.67 1011.84 1011.89 1011.87 1011.83 1011.81 1011.86 1012.01 1012.28 1012.65 1013.10 1013.58 1014.07 1014.54 1014.98 1015.38 1015.76 1016.14 1016.51
1006.26 1006.88 1007.64 1008.38 1008.98 1009.32 1009.32 1008.97 1008.31 1007.42 1006.45 1005.53 1004.78 1004.27 1004.04 1004.08 1004.35 1004.77 1005.27 1005.79 1006.30 1006.78 1007.26 1007.74 1008.25 1008.80 1009.37 1009.95 1010.49 1010.96 1011.32 1011.55 1011.67 1011.70 1011.69 1011.69 1011.74 1011.87 1012.11 1012.44 1012.85 1013.30 1013.76 1014.21 1014.62 1015.01 1015.38 1015.74 1016.10
1006.31 1007.12 1008.01 1008.86 1009.50 1009.83 1009.77 1009.31 1008.51 1007.48 1006.36 1005.32 1004.46 1003.89 1003.63 1003.66 1003.95 1004.40 1004.93 1005.48 1005.99 1006.47 1006.91 1007.34 1007.80 1008.30 1008.83 1009.39 1009.93 1010.41 1010.81 1011.11 1011.29 1011.38 1011.42 1011.46 1011.53 1011.67 1011.89 1012.21 1012.59 1013.01 1013.45 1013.87 1014.27 1014.64 1014.99 1015.32 1015.65
1006.36 1007.30 1008.28 1009.17 1009.82 1010.11 1009.97 1009.42 1008.51 1007.37 1006.16 1005.04 1004.13 1003.52 1003.26 1003.31 1003.63 1004.12 1004.69 1005.27 1005.79 1006.26 1006.67 1007.05 1007.44 1007.86 1008.32 1008.81 1009.31 1009.77 1010.18 1010.50 1010.72 1010.87 1010.96 1011.04 1011.14 1011.30 1011.54 1011.85 1012.22 1012.63 1013.06 1013.47 1013.86 1014.21 1014.54 1014.84 1015.14
1006.33 1007.33 1008.35 1009.23 1009.84 1010.08 1009.88 1009.27 1008.31 1007.13 1005.89 1004.75 1003.85 1003.25 1003.01 1003.09 1003.45 1003.98 1004.58 1005.18 1005.72 1006.18 1006.56 1006.89 1007.20 1007.53 1007.89 1008.29 1008.70 1009.10 1009.47 1009.77 1010.00 1010.17 1010.30 1010.41 1010.55 1010.73 1010.98 1011.29 1011.67 1012.08 1012.51 1012.92 1013.31 1013.66 1013.98 1014.27 1014.54
1006.18 1007.17 1008.14 1008.97 1009.52 1009.70 1009.47 1008.85 1007.91 1006.77 1005.58 1004.50 1003.66 1003.12 1002.92 1003.04 1003.42 1003.98 1004.60 1005.22 1005.77 1006.22 1006.58 1006.86 1007.10 1007.34 1007.60 1007.88 1008.18 1008.49 1008.77 1009.02 1009.22 1009.37 1009.50 1009.62 1009.77 1009.96 1010.22 1010.54 1010.92 1011.33 1011.77 1012.20 1012.60 1012.96 1013.29 1013.59 1013.87
1005.88 1006.79 1007.66 1008.38 1008.85 1008.98 1008.75 1008.18 1007.33 1006.31 1005.26 1004.32 1003.58 1003.14 1003.00 1003.16 1003.56 1004.11 1004.74 1005.35 1005.90 1006.35 1006.69 1006.95 1007.14 1007.31 1007.48 1007.65 1007.84 1008.02 1008.20 1008.35 1008.47 1008.57 1008.66 1008.76 1008.89 1009.08 1009.33 1009.64 1010.02 1010.44 1010.88 1011.32 1011.75 1012.14 1012.50 1012.83 1013.14
1005.48 1006.24 1006.95 1007.53 1007.90 1007.99 1007.80 1007.32 1006.63 1005.80 1004.95 1004.20 1003.63 1003.30 1003.23 1003.42 1003.81 1004.35 1004.95 1005.54 1006.08 1006.52 1006.87 1007.12 1007.30 1007.43 1007.53 1007.62 1007.70 1007.77 1007.83 1007.87 1007.90 1007.91 1007.94 1007.98 1008.07 1008.23 1008.45 1008.74 1009.10 1009.51 1009.95 1010.40 1010.85 1011.28 1011.68 1012.07 1012.45
Thickness
5843 5846 5846 5840 5818 5805 5809 5826 5835 5833 5834 5845 5848 5840 5824 5816 5804 5791 5823 5830 5822 5812 5803 5797 5794 5791 5788 5785 5783 5781 5778 5776 5774 5772 5771 5769 5768 5767 5766 5764 5763 5762 5762 5760 5759 5758 5757 5755 5754
5849 5853 5846 5829 5802 5794 5809 5833 5832 5835 5843 5851 5849 5840 5827 5820 5826 5823 5826 5826 5821 5811 5804 5798 5793 5790 5787 5784 5782 5780 5777 5775 5773 5771 5770 5768 5766 5765 5764 5763 5762 5761 5760 5759 5757 5756 5755 5754 5753
5849 5854 5837 5822 5805 5806 5815 5836 5838 5846 5853 5849 5841 5838 5827 5820 5827 5826 5828 5828 5820 5811 5803 5795 5792 5788 5785 5783 5781 5778 5776 5774 5772 5770 5768 5767 5765 5764 5763 5762 5761 5759 5758 5757 5756 5754 5753 5752 5752
5849 5848 5838 5823 5816 5834 5840 5846 5848 5846 5848 5850 5842 5827 5827 5836 5835 5832 5832 5828 5818 5809 5801 5794 5790 5787 5784 5782 5779 5777 5775 5773 5771 5769 5767 5766 5764 5763 5762 5760 5759 5758 5756 5755 5754 5753 5751 5751 5751
5851 5836 5817 5813 5829 5848 5857 5858 5855 5845 5843 5846 5839 5819 5817 5836 5841 5836 5833 5826 5817 5810 5801 5793 5789 5786 5783 5781 5778 5776 5774 5772 5770 5768 5767 5765 5763 5762 5761 5759 5758 5756 5755 5754 5753 5751 5750 5750 5749
5838 5832 5807 5807 5831 5852 5860 5863 5857 5847 5845 5845 5837 5821 5816 5835 5834 5833 5833 5827 5821 5811 5801 5791 5787 5784 5781 5779 5777 5775 5773 5771 5769 5767 5766 5764 5762 5761 5759 5758 5757 5755 5754 5752 5751 5750 5749 5748 5748
5831 5824 5815 5824 5834 5844 5856 5864 5855 5845 5842 5845 5845 5821 5818 5829 5833 5835 5832 5828 5822 5812 5801 5792 5787 5783 5780 5778 5776 5774 5772 5770 5768 5767 5765 5763 5762 5760 5758 5757 5756 5754 5753 5751 5750 5749 5748 5747 5747
5847 5831 5824 5833 5838 5841 5860 5865 5861 5852 5843 5857 5852 5824 5814 5827 5835 5835 5830 5826 5820 5812 5803 5795 5789 5784 5780 5777 5775 5773 5771 5769 5767 5766 5764 5763 5761 5760 5758 5756 5755 5753 5752 5750 5749 5748 5747 5747 5747
5851 5824 5819 5834 5840 5845 5862 5859 5861 5865 5853 5852 5853 5843 5837 5838 5836 5828 5823 5819 5814 5810 5804 5799 5793 5787 5783 5779 5776 5773 5770 5768 5767 5765 5764 5763 5762 5761 5758 5757 5754 5753 5751 5750 5749 5748 5747 5746 5746
5841 5821 5830 5852 5857 5856 5860 5858 5859 5853 5842 5836 5838 5839 5839 5836 5830 5822 5817 5812 5809 5805 5804 5802 5796 5790 5788 5784 5777 5775 5772 5769 5768 5767 5765 5764 5764 5762 5760 5757 5755 5753 5752 5750 5749 5748 5746 5746 5747
5842 5831 5847 5859 5866 5864 5856 5858 5863 5846 5830 5829 5826 5828 5831 5830 5826 5820 5817 5814 5810 5807 5805 5803 5797 5792 5790 5786 5780 5778 5776 5772 5770 5769 5767 5766 5765 5763 5760 5758 5755 5753 5752 5752 5750 5748 5748 5748 5749
5840 5846 5854 5858 5866 5859 5854 5855 5855 5848 5842 5845 5839 5836 5831 5827 5823 5820 5816 5814 5810 5806 5804 5802 5798 5793 5791 5787 5784 5781 5779 5774 5773 5771 5770 5768 5767 5766 5764 5761 5758 5756 5755 5754 5753 5752 5752 5752 5752
5839 5844 5855 5860 5861 5860 5856 5851 5850 5848 5856 5854 5846 5839 5831 5827 5825 5824 5820 5816 5810 5805 5803 5802 5798 5792 5790 5787 5785 5783 5781 5778 5776 5773 5771 5770 5769 5767 5765 5762 5760 5759 5757 5756 5756 5755 5754 5754 5753
5844 5847 5851 5855 5856 5857 5849 5848 5847 5848 5858 5851 5843 5836 5832 5829 5826 5821 5815 5812 5808 5804 5802 5801 5797 5792 5787 5784 5782 5783 5782 5779 5778 5775 5772 5771 5770 5767 5765 5763 5762 5761 5760 5759 5757 5756 5755 5754 5753
5845 5836 5839 5847 5852 5853 5847 5832 5838 5851 5855 5846 5839 5835 5832 5830 5827 5821 5816 5811 5808 5804 5801 5798 5794 5790 5785 5782 5780 5782 5782 5780 5778 5776 5773 5770 5769 5768 5766 5764 5762 5762 5761 5760 5758 5757 5755 5754 5753
5833 5823 5817 5840 5849 5850 5834 5810 5835 5849 5847 5840 5838 5835 5831 5828 5827 5824 5820 5814 5810 5804 5799 5797 5794 5788 5783 5780 5779 5780 5781 5781 5779 5776 5772 5770 5769 5767 5766 5765 5764 5763 5762 5760 5758 5756 5754 5753 5752
5815 5808 5815 5834 5851 5847 5832 5814 5833 5843 5843 5837 5836 5833 5828 5825 5824 5823 5821 5815 5809 5804 5799 5794 5792 5787 5782 5779 5777 5779 5779 5779 5778 5776 5773 5770 5767 5766 5765 5765 5765 5763 5762 5760 5759 5756 5754 5751 5751
5807 5816 5821 5827 5846 5842 5828 5822 5834 5841 5841 5836 5833 5829 5824 5820 5820 5821 5818 5814 5809 5803 5798 5792 5789 5786 5781 5778 5776 5776 5776 5776 5776 5775 5773 5770 5767 5766 5765 5764 5763 5763 5762 5760 5758 5755 5754 5752 5751
5820 5818 5817 5828 5846 5836 5825 5822 5828 5839 5840 5833 5827 5824 5821 5818 5819 5818 5814 5811 5806 5801 5795 5791 5786 5784 5780 5776 5772 5770 5770 5772 5773 5773 5772 5769 5767 5765 5764 5764 5763 5762 5760 5759 5758 5755 5752 5751 5752
5813 5810 5814 5826 5840 5831 5821 5820 5829 5835 5836 5834 5827 5824 5821 5818 5815 5811 5810 5809 5804 5798 5794 5789 5785 5783 5780 5777 5775 5773 5771 5771 5771 5771 5770 5768 5766 5764 5763 5761 5761 5760 5758 5757 5756 5754 5751 5751 5752
5807 5805 5811 5816 5829 5830 5818 5808 5816 5829 5836 5835 5834 5830 5825 5820 5814 5810 5808 5807 5803 5798 5794 5791 5786 5783 5779 5777 5774 5772 5770 5768 5767 5766 5766 5766 5765 5763 5763 5761 5760 5759 5758 5755 5755 5754 5750 5747 5750
5797 5817 5818 5816 5809 5804 5810 5786 5804 5815 5817 5823 5827 5827 5823 5821 5817 5812 5808 5804 5802 5799 5796 5792 5787 5782 5779 5776 5773 5769 5765 5762 5764 5765 5765 5764 5763 5762 5761 5760 5759 5758 5758 5756 5755 5754 5752 5748 5744
5808 5823 5818 5814 5805 5798 5803 5791 5795 5808 5799 5811 5823 5824 5823 5821 5816 5811 5809 5805 5802 5800 5796 5791 5786 5781 5778 5775 5773 5769 5766 5765 5765 5765 5763 5761 5761 5760 5759 5759 5758 5757 5757 5756 5754 5754 5752 5749 5746
5817 5813 5809 5807 5798 5776 5793 5788 5781 5800 5805 5810 5818 5821 5819 5819 5816 5813 5810 5805 5800 5798 5795 5790 5784 5779 5777 5775 5773 5769 5766 5764 5762 5761 5758 5758 5757 5757 5757 5757 5757 5756 5756 5755 5754 5753 5751 5749 5747
5806 5789 5769 5765 5766 5774 5805 5794 5792 5814 5818 5816 5817 5817 5817 5817 5815 5810 5805 5801 5798 5796 5793 5790 5783 5778 5776 5774 5772 5770 5767 5764 5762 5760 5758 5756 5755 5755 5755 5756 5755 5755 5755 5755 5754 5752 5751 5749 5746
5797 5792 5769 5757 5763 5780 5799 5790 5804 5826 5826 5827 5824 5821 5816 5814 5813 5808 5805 5802 5798 5795 5792 5789 5783 5778 5776 5774 5771 5770 5768 5765 5762 5761 5759 5757 5756 5755 5756 5755 5754 5754 5754 5754 5753 5752 5750 5748 5746
5794 5793 5805 5791 5783 5770 5779 5792 5807 5821 5820 5822 5821 5818 5813 5811 5811 5807 5804 5801 5799 5795 5791 5787 5782 5778 5775 5773 5771 5769 5767 5764 5762 5760 5759 5757 5757 5756 5755 5754 5752 5752 5753 5752 5752 5750 5748 5747 5746
5810 5804 5794 5782 5760 5751 5766 5775 5784 5796 5806 5813 5813 5812 5812 5811 5809 5806 5802 5800 5798 5795 5791 5787 5782 5778 5775 5773 5770 5768 5766 5764 5761 5759 5757 5756 5756 5755 5754 5752 5751 5751 5751 5750 5749 5747 5747 5745 5744
5796 5796 5793 5788 5784 5761 5752 5763 5798 5800 5807 5809 5811 5812 5811 5809 5806 5804 5801 5798 5795 5792 5787 5782 5779 5775 5773 5771 5769 5767 5765 5763 5760 5757 5755 5754 5754 5752 5751 5750 5749 5748 5748 5747 5746 5744 5744 5743 5742
5805 5800 5794 5773 5771 5779 5768 5759 5797 5799 5803 5807 5808 5808 5809 5807 5805 5802 5798 5794 5790 5786 5783 5779 5776 5772 5770 5769 5767 5764 5762 5760 5757 5754 5753 5752 5750 5750 5749 5747 5746 5746 5745 5744 5743 5741 5742 5740 5739